Location: Bower School (historical)
(37.8389°N, 89.5348°W)
Time: 02:28:02
(UTC+00:00)

Cosmos 2151 - Pass Details

Date: 11 December 2025
Orbit: 559 x 575 km, 82.5° (Epoch: 15 January)

Event Time Altitude Azimuth Distance (km) Brightness Sun altitude
Rises 23:29:30 0° 349° (N) 2,787 6.3 -9.8°
Reaches altitude 10° 23:31:42 10° 346° (NNW) 1,886 5.5 -10.2°
Maximum altitude 23:35:49 64° 266° (W) 639 3.4 -11.0°
Drops below altitude 10° 23:39:55 10° 184° (S) 1,877 5.9 -11.7°
Sets 23:42:06 0° 181° (S) 2,771 6.7 -12.1°
